Showing default

QIANFAN-20, 61553

Orbit data source: Space-Track

QIANFAN-20, 61553 is a Chinese payload satellite in LEO that was launched on Tue, 15 Oct 2024 UTC via a CHANG ZHENG 6A launch vehicle from the Taiyaun Space Center, China (TSC). Payload-class satellites include a variety of spacecraft equipped with specific instruments for various scientific and technological missions. These include communications satellites like Starlink; space stations such as the ISS; scientific satellites like the Hubble; Earth observation satellites from companies like Planet Labs, Umbra, and HawkEye 360; GPS; miniature CubeSats for education and research; and military/defense satellites.

Loading next visibility...
Identifier
61553, 2024-185B
Orbit
LEO
Country
Flag of CNCN / PRC
Related business
Manufacturer
GESIH/SECM
Mission
Partially operational Commercial Communications
Bus & Motor
QIANFAN, Unknown motor
Mass
267 kg wet, ~267 kg dry
Launch date (UTC)
Icon of a cake. It is the launch day of the satellite!2024-10-15 (1 year ago)
Launch vehicle
CHANG ZHENG 6A
Launch site
Taiyaun Space Center, China (TSC)
Object type
Payload
Rocket body
Debris
Shape & HBR
Box + 1 Pan, 5.0 m
Radar Cross Section
13.200 m², Large (>1 m²)

Expand to show TLE details & history
Last TLE update: 9 hours ago

TLE from 9 hours ago
0 QIANFAN-20
1 61553U 24185B   25287.94826029  .00000795  00000-0  45341-3 0  9995
2 61553  88.9765  84.9389 0006474 153.9780 206.1731 14.08749320 61218
Epoch: 2025-10-14T22:45Z
TLE epoch observation values (Epoch: 2025-10-14T22:45:29.689Z)
Latitude
0.00006°
Longitude
79.83583°
Altitude
870.901 km
Speed
7.415 km/s
True Right ascension
05h 39m 45s
True Declination
0° 00' 00"
Sunlit
Object was in daylight at epoch
Visualization orbit readout
Latitude
Unknown
Longitude
Unknown
Altitude
Unknown
Speed
Unknown
Apparent Right ascension
Unknown
Apparent Declination
Unknown
Sunlit
N/A
Visualization observer readout
Local Sidereal Time
02:08:00
Azimuth
Unknown
Elevation
Unknown
Doppler factor
Unknown
Orbital elements
Apogee altitude
865.309 km
Perigee altitude
855.936 km
Semi-major axis
7,238.759 km
Eccentricity
0.00065
Inclination
88.9765°
RAAN
84.9389°
Arg. of periapsis
153.978°
True anomaly
206.1404°
Mean anomaly
206.1731°
Eccentric anomaly
206.15675°
Mean motion
3.52409 °/min
Orbital period
102.15 mins
BSTAR
0.00045341
Loading maneuver chart data...
Computing Atmospheric mass density...
Loading historical data...
Loading historical data...
Loading historical data...
Loading historical data...
Loading historical data...
Loading historical data...
Loading historical data...

Documentation

Showing up to 5 results
|